Location: Newark
(21.8258°S, 114.1586°E)
Time: 23:17:06
(UTC+00:00)

ISS - Visible Passes

Search period start: 15 December 2019 00:00
Search period end: 25 December 2019 00:00
Orbit: 411 x 421 km, 51.6° (Epoch: 16 December)

Date Brightness Start Highest point End Pass type
(mag) Time Alt. Az. Time Alt. Az. Time Alt. Az.
15 Dec -3.3 12:17:39 10° NW 12:21:00 64° SW 12:24:24 10° SSE visible
15 Dec -0.4 20:32:11 10° S 20:34:14 15° SE 20:36:16 10° E visible
16 Dec -3.6 11:29:16 10° NNW 11:32:33 53° NE 11:35:54 10° SE visible
17 Dec -0.4 12:18:32 10° W 12:20:49 17° SW 12:23:07 10° S visible
17 Dec -3.0 20:30:44 10° SSW 20:34:04 55° SE 20:37:21 10° NE visible
18 Dec -1.6 11:29:09 10° WNW 11:32:13 32° SW 11:35:20 10° SSE visible
18 Dec -1.4 19:42:37 10° SSW 19:45:31 26° SE 19:48:23 10° ENE visible
19 Dec -0.5 18:57:25 13° SE 18:57:25 13° SE 18:58:42 10° ESE visible
19 Dec -3.0 20:31:37 16° WSW 20:33:37 29° NW 20:36:33 10° N visible
